Regional Weather Roundup
Issued by NWS

Home | Current Version | Previous Version | Text Only | Print | Product List | Glossary Off
Versions: 1 2 3 4 5 6 7 8 9 10 11 12 13 14 15 16 17 18 19 20 21 22 23 24 25 26 27 28 29 30 31 32 33 34 35 36 37 38 39 40 41 42 43 44 45 46 47 48 49 50

462
ASUS43 KMKX 231100
RWRWI

WISCONSIN REGIONAL WEATHER ROUNDUP
NATIONAL WEATHER SERVICE MILWAUKEE/SULLIVAN WI
600 AM CDT THU MAR 23 2017

NOTE: "FAIR" INDICATES FEW OR NO CLOUDS BELOW 12,000 FEET WITH NO
SIGNIFICANT WEATHER AND/OR OBSTRUCTIONS TO VISIBILITY.

WIZ001-002-006>008-014>016-023>028-231200-
NORTHWEST WISCONSIN

CITY           SKY/WX    TMP DP  RH WIND       PRES   REMARKS
SUPERIOR ARPT  CLOUDY    30  28  94 SE5       30.22F WCI  25
ASHLAND        LGT SNOW  29  25  85 S6G20     30.27S VSB 1   WCI  23
HAYWARD        CLOUDY    31  23  72 S9        30.24F WCI  23
SIREN          CLOUDY    31  25  81 SE8       30.20F WCI  23
CUMBERLAND     CLOUDY    28  25  86 SE9G18    30.22F WCI  20
RICE LAKE      CLOUDY    30  26  85 E9        30.25F WCI  22
CHETEK         CLOUDY    29  26  86 SE7       30.25F WCI  22
LADYSMITH      LGT SNOW  29  26  90 SE7       30.30S VSB 3/4 WCI  22
EAU CLAIRE     NOT AVBL
MENOMONIE      CLOUDY    34  21  59 E10       30.24F WCI  26
NEW RICHMOND   CLOUDY    34  18  52 SE10      30.20F WCI  26
OSCEOLA        CLOUDY    35  19  53 SE10      30.22S WCI  27
$$

WIZ003>005-009-010-017-018-231200-
NORTH CENTRAL WISCONSIN

CITY           SKY/WX    TMP DP  RH WIND       PRES   REMARKS
MANITOWISH WTR LGT SNOW  26  21  82 S9        30.28F WCI  17
ARBOR VITAE    CLOUDY    29  20  67 S6        30.28F WCI  23
WOODRUFF       CLOUDY    29  20  67 S6        30.28F WCI  23
RHINELANDER    CLOUDY    28  19  69 S7        30.31S WCI  21
EAGLE RIVER    CLOUDY    26  17  71 S3        30.30S
LAND O LAKES   CLOUDY    27  18  70 S6        30.31S WCI  20
PHILLIPS       LGT SNOW  27  24  88 S10       30.28S WCI  17
TOMAHAWK       CLOUDY    27  19  72 S5        30.30F WCI  22
MEDFORD        CLOUDY    27  20  76 SE8       30.29F WCI  19
MERRILL        CLOUDY    28  19  71 S6        30.34S WCI  21
$$

WIZ029-030-035-036-043>047-231200-
CENTRAL WISCONSIN

CITY           SKY/WX    TMP DP  RH WIND       PRES   REMARKS
WAUSAU         CLOUDY    27  18  69 SE8       30.33F WCI  19
MOSINEE        CLOUDY    27  19  74 SE7       30.34F WCI  19
MARSHFIELD     FLURRIES  28  19  69 S12       30.30F WCI  18
STEVENS POINT  CLOUDY    25  17  73 SE6       30.35F WCI  18
WAUPACA        CLOUDY    28  20  71 SE6       30.41S WCI  22
WAUTOMA        CLOUDY    27  21  78 SE7         N/A  WCI  19
WISC RAPIDS    CLOUDY    28  20  71 SE9       30.35F WCI  19
CAMP DOUGLAS   NOT AVBL
$$

WIZ011>013-019>022-031-037>040-048>050-231200-
NORTHEAST WISCONSIN

CITY           SKY/WX    TMP DP  RH WIND       PRES   REMARKS
ANTIGO         CLOUDY    24  18  77 S8        30.35S WCI  16
SHAWANO        CLOUDY    28  21  74 CALM      30.41S
OCONTO         CLOUDY    26  21  83 CALM      30.42S
STURGEON BAY   CLOUDY    29  24  82 S6        30.42F WCI  23
GREEN BAY      CLOUDY    28  23  81 S5        30.43R WCI  23
MANITOWOC      NOT AVBL
APPLETON       CLOUDY    28  19  69 VRB5      30.39R WCI  23
CLINTONVILLE   CLOUDY    28  21  74 S6        30.40F WCI  22
OSHKOSH        CLOUDY    28  22  78 S6        30.40S WCI  22
$$

WIZ032>034-041-042-053>061-231200-
SOUTHWEST WISCONSIN

CITY           SKY/WX    TMP DP  RH WIND       PRES   REMARKS
LA CROSSE      CLOUDY    36  22  56 SE12      30.29F WCI  28
SPARTA         MOCLDY    33  19  57 SE7       30.32F WCI  27
VIROQUA        CLOUDY    31  20  64 SE12      30.29F WCI  22
BOSCOBEL       CLOUDY    33  20  58 MISG      30.34S
PRAIRIE DU CHI CLOUDY    35  19  53 E9        30.31S WCI  27
PLATTEVILLE    CLOUDY    32  23  68 SE14      30.33S WCI  22
$$

WIZ056-057-062-063-064-067-068-231200-
SOUTH CENTRAL WISCONSIN

CITY           SKY/WX    TMP DP  RH WIND       PRES   REMARKS
REEDSBURG      CLOUDY    30  19  63 SE5       30.34F WCI  25
BARABOO/DELLS  CLOUDY    29  20  67 SE7       30.36S WCI  22
LONE ROCK      NOT AVBL
MINERAL POINT  CLOUDY    32  23  69 SE12      30.32F WCI  23
MADISON        CLOUDY    30  21  69 VRB7      30.37S WCI  23
MIDDLETON      CLOUDY    32  22  67 SE7       30.37S WCI  25
WATERTOWN      CLOUDY    29  25  84 E3        30.39S
MONROE         CLOUDY    30  23  74 SE8       30.34F WCI  23
JANESVILLE     CLOUDY    32  23  69 SE7       30.38S WCI  26
$$

WIZ051-052-058>065-066-070>072-231200-
SOUTHEAST WISCONSIN

CITY           SKY/WX    TMP DP  RH WIND       PRES   REMARKS
MILWAUKEE      CLOUDY    33  23  66 S8        30.42R WCI  26
WAUKESHA       CLOUDY    28  23  80 SE7       30.40F WCI  21
MILWAUKEE/TIMM CLOUDY    27  21  80 CALM      30.43R
RACINE         CLOUDY    34  21  59 S9        30.44R WCI  27
KENOSHA        CLOUDY    33  23  66 SE12      30.42R WCI  24
FOND DU LAC    CLOUDY    30  22  72 S6        30.41R WCI  24
SHEBOYGAN      CLOUDY    27  24  89 CALM      30.42R
WEST BEND      CLOUDY    27  25  93 CALM      30.42R
JUNEAU         CLOUDY    29  23  78 SE7       30.41S WCI  22
$$

LSZ147-162-231200-
LAKE SUPERIOR

STATION/POSITION TIME  TEMP    WIND        PRES    WAVE
                       AIR SEA DIR/SP/G            HT/PER
                 (UTC) (F)     (DEG/KT/KT) (MB)    (FT/S)
DEVILS ISLAND    1000   30     190/  6/  9 1026.2F
PORT WING        1040   31     160/  9/ 12 1024.4F
SAXON HARBOR     1030   32     160/  6/  9 1024.7F
$$

LMZ867-665-643>646-231200-
LAKE MICHIGAN

STATION/POSITION TIME  TEMP    WIND        PRES    WAVE
                       AIR SEA DIR/SP/G            HT/PER
                 (UTC) (F)     (DEG/KT/KT) (MB)    (FT/S)
CHAMBERS ISLAND  1040   27      CALM  /  3 1029.5F
NORTHPORT PIER   1040   29        CALM     1030.1F
SISTER BAY       1005   27        CALM       N/A
KEWAUNEE LAKESHO 1030   32     190/ 13/ 16 1029.8S
SHEBOYGAN LAKESH 1000   33     150/ 15/ 17 1030.6F
PORT WASHINGTON  1030   35     180/ 11/ 16 1031.2R
MILWAUKEE LAKESH 1030   35     180/ 10/ 12   N/A
KENOSHA   LAKESH 1000   35     170/ 18/ 21 1029.8
$$

TC  - TEMPERATURE IN CELSIUS
VSB - VISIBILITY IN STATUTE MILES
WCI - WIND CHILL INDEX
HX  - HEAT INDEX





USA.gov is the U.S. government's official web portal to all federal, state and local government web resources and services.